Time,TemperatureF,DewpointF,PressureIn,WindDirection,WindDirectionDegrees,WindSpeedMPH,WindSpeedGustMPH,Humidity,HourlyPrecipIn,Conditions,Clouds,dailyrainin,SoftwareType,DateUTC
2013-02-28 00:00:00,47.8,45.6,30.37,SE,137,0.0,0.0,92,0.00,,,0.00,Wunderground v.1.15,2013-02-28 08:00:00,
2013-02-28 00:05:00,47.9,45.7,30.37,SE,137,0.0,0.0,92,0.00,,,0.00,Wunderground v.1.15,2013-02-28 08:05:00,
2013-02-28 00:15:00,48.0,46.1,30.37,SE,137,0.0,0.0,93,0.00,,,0.00,Wunderground v.1.15,2013-02-28 08:15:00,
2013-02-28 00:20:00,47.9,46.0,30.37,SE,137,0.0,0.0,93,0.00,,,0.00,Wunderground v.1.15,2013-02-28 08:20:00,
2013-02-28 00:25:00,48.0,46.1,30.37,SE,137,0.0,0.0,93,0.00,,,0.00,Wunderground v.1.15,2013-02-28 08:25:00,
2013-02-28 00:30:00,47.9,46.0,30.37,SE,137,0.0,0.0,93,0.00,,,0.00,Wunderground v.1.15,2013-02-28 08:30:00,
2013-02-28 00:40:00,47.5,45.6,30.37,SE,137,0.0,0.0,93,0.00,,,0.00,Wunderground v.1.15,2013-02-28 08:40:00,
2013-02-28 00:45:00,47.5,45.6,30.37,SE,137,0.0,0.0,93,0.00,,,0.00,Wunderground v.1.15,2013-02-28 08:45:00,
2013-02-28 00:50:00,47.4,45.5,30.37,SE,137,0.0,0.0,93,0.00,,,0.00,Wunderground v.1.15,2013-02-28 08:50:00,
2013-02-28 00:55:00,47.4,45.5,30.38,SE,137,0.0,0.0,93,0.00,,,0.00,Wunderground v.1.15,2013-02-28 08:55:00,
2013-02-28 01:00:00,47.4,45.5,30.38,SE,137,0.0,0.0,93,0.00,,,0.00,Wunderground v.1.15,2013-02-28 09:00:00,
2013-02-28 01:10:00,47.3,45.4,30.38,SE,137,0.0,1.0,93,0.00,,,0.00,Wunderground v.1.15,2013-02-28 09:10:00,
2013-02-28 01:15:00,47.3,45.7,30.37,SE,137,0.0,1.0,94,0.00,,,0.00,Wunderground v.1.15,2013-02-28 09:15:00,
2013-02-28 01:20:00,47.1,45.5,30.38,SE,137,0.0,1.0,94,0.00,,,0.00,Wunderground v.1.15,2013-02-28 09:20:00,
2013-02-28 01:25:00,47.0,45.4,30.38,SE,137,0.0,1.0,94,0.00,,,0.00,Wunderground v.1.15,2013-02-28 09:25:00,
2013-02-28 01:35:00,46.8,45.2,30.38,SE,137,0.0,1.0,94,0.00,,,0.00,Wunderground v.1.15,2013-02-28 09:35:00,
2013-02-28 01:40:00,46.8,45.2,30.38,SE,137,0.0,1.0,94,0.00,,,0.00,Wunderground v.1.15,2013-02-28 09:40:00,
2013-02-28 01:45:00,47.4,46.0,30.38,SE,137,0.0,1.0,95,0.00,,,0.00,Wunderground v.1.15,2013-02-28 09:45:00,
2013-02-28 01:55:00,48.1,46.7,30.38,SE,137,0.0,1.0,95,0.00,,,0.00,Wunderground v.1.15,2013-02-28 09:55:00,
2013-02-28 02:00:00,48.4,46.8,30.38,SE,137,0.0,1.0,94,0.00,,,0.00,Wunderground v.1.15,2013-02-28 10:00:00,
2013-02-28 02:05:00,48.3,46.7,30.38,SE,137,0.0,1.0,94,0.00,,,0.00,Wunderground v.1.15,2013-02-28 10:05:00,
2013-02-28 02:10:00,48.0,46.1,30.38,SE,137,0.0,1.0,93,0.00,,,0.00,Wunderground v.1.15,2013-02-28 10:10:00,
2013-02-28 02:15:00,47.7,45.8,30.38,SE,137,0.0,1.0,93,0.00,,,0.00,Wunderground v.1.15,2013-02-28 10:15:00,
2013-02-28 02:25:00,47.3,45.4,30.39,SE,137,0.0,1.0,93,0.00,,,0.00,Wunderground v.1.15,2013-02-28 10:25:00,
2013-02-28 02:30:00,47.9,46.3,30.39,SE,137,1.0,2.0,94,0.00,,,0.00,Wunderground v.1.15,2013-02-28 10:30:00,
2013-02-28 02:35:00,48.1,46.5,30.39,SE,137,1.0,2.0,94,0.00,,,0.00,Wunderground v.1.15,2013-02-28 10:35:00,
2013-02-28 02:40:00,48.2,46.6,30.39,SE,137,0.0,1.0,94,0.00,,,0.00,Wunderground v.1.15,2013-02-28 10:40:00,
2013-02-28 02:50:00,48.1,46.2,30.38,SE,137,0.0,1.0,93,0.00,,,0.00,Wunderground v.1.15,2013-02-28 10:50:00,
2013-02-28 02:55:00,47.8,45.9,30.38,SE,137,0.0,1.0,93,0.00,,,0.00,Wunderground v.1.15,2013-02-28 10:55:00,
2013-02-28 03:00:00,47.6,45.7,30.38,SE,137,0.0,1.0,93,0.00,,,0.00,Wunderground v.1.15,2013-02-28 11:00:00,
2013-02-28 03:05:00,47.5,45.9,30.38,SE,137,0.0,1.0,94,0.00,,,0.00,Wunderground v.1.15,2013-02-28 11:05:00,
2013-02-28 03:10:00,47.4,45.8,30.38,SE,137,0.0,1.0,94,0.00,,,0.00,Wunderground v.1.15,2013-02-28 11:10:00,
2013-02-28 03:20:00,47.0,45.4,30.37,SE,137,0.0,1.0,94,0.00,,,0.00,Wunderground v.1.15,2013-02-28 11:20:00,
2013-02-28 03:25:00,46.9,45.3,30.37,SE,137,0.0,1.0,94,0.00,,,0.00,Wunderground v.1.15,2013-02-28 11:25:00,
2013-02-28 03:30:00,46.7,45.1,30.37,SE,137,0.0,1.0,94,0.00,,,0.00,Wunderground v.1.15,2013-02-28 11:30:00,
2013-02-28 03:35:00,46.9,45.5,30.38,SE,137,0.0,1.0,95,0.00,,,0.00,Wunderground v.1.15,2013-02-28 11:35:00,
2013-02-28 03:45:00,47.5,46.1,30.37,SE,137,0.0,1.0,95,0.00,,,0.00,Wunderground v.1.15,2013-02-28 11:45:00,
2013-02-28 03:50:00,47.4,46.0,30.38,SE,137,0.0,1.0,95,0.00,,,0.00,Wunderground v.1.15,2013-02-28 11:50:00,
2013-02-28 03:55:00,47.3,45.9,30.38,SE,137,0.0,1.0,95,0.00,,,0.00,Wunderground v.1.15,2013-02-28 11:55:00,
2013-02-28 04:00:00,46.9,45.3,30.38,SE,137,0.0,1.0,94,0.00,,,0.00,Wunderground v.1.15,2013-02-28 12:00:00,
2013-02-28 04:10:00,46.0,44.6,30.38,SE,137,0.0,1.0,95,0.00,,,0.00,Wunderground v.1.15,2013-02-28 12:10:00,
2013-02-28 04:15:00,46.0,44.6,30.38,SE,137,0.0,1.0,95,0.00,,,0.00,Wunderground v.1.15,2013-02-28 12:15:00,
2013-02-28 04:20:00,45.7,44.4,30.38,SE,137,0.0,1.0,95,0.00,,,0.00,Wunderground v.1.15,2013-02-28 12:20:00,
2013-02-28 04:25:00,45.0,43.7,30.38,SE,137,0.0,1.0,95,0.00,,,0.00,Wunderground v.1.15,2013-02-28 12:25:00,
2013-02-28 04:30:00,45.2,43.9,30.38,SE,137,0.0,1.0,95,0.00,,,0.00,Wunderground v.1.15,2013-02-28 12:30:00,
2013-02-28 04:40:00,45.3,44.2,30.38,SE,137,0.0,1.0,96,0.00,,,0.00,Wunderground v.1.15,2013-02-28 12:40:00,
2013-02-28 04:45:00,45.1,43.8,30.38,SE,137,0.0,1.0,95,0.00,,,0.00,Wunderground v.1.15,2013-02-28 12:45:00,
2013-02-28 04:50:00,44.9,43.6,30.38,SE,137,0.0,1.0,95,0.00,,,0.00,Wunderground v.1.15,2013-02-28 12:50:00,
2013-02-28 04:55:00,44.8,43.7,30.39,SE,137,0.0,1.0,96,0.00,,,0.00,Wunderground v.1.15,2013-02-28 12:55:00,
2013-02-28 05:00:00,44.6,43.3,30.39,SE,137,0.0,1.0,95,0.00,,,0.00,Wunderground v.1.15,2013-02-28 13:00:00,
2013-02-28 05:10:00,44.1,43.0,30.39,SE,137,0.0,1.0,96,0.00,,,0.00,Wunderground v.1.15,2013-02-28 13:10:00,
2013-02-28 05:15:00,44.2,43.1,30.39,SE,137,0.0,1.0,96,0.00,,,0.00,Wunderground v.1.15,2013-02-28 13:15:00,
2013-02-28 05:20:00,44.4,43.3,30.40,SE,137,0.0,1.0,96,0.00,,,0.00,Wunderground v.1.15,2013-02-28 13:20:00,
2013-02-28 05:30:00,44.2,43.1,30.40,SE,137,0.0,1.0,96,0.00,,,0.00,Wunderground v.1.15,2013-02-28 13:30:00,
2013-02-28 05:35:00,43.8,42.7,30.40,SE,137,0.0,1.0,96,0.00,,,0.00,Wunderground v.1.15,2013-02-28 13:35:00,
2013-02-28 05:40:00,43.5,42.4,30.40,SE,137,0.0,1.0,96,0.00,,,0.00,Wunderground v.1.15,2013-02-28 13:40:00,
2013-02-28 05:45:00,43.3,42.2,30.40,SE,137,0.0,1.0,96,0.00,,,0.00,Wunderground v.1.15,2013-02-28 13:45:00,
2013-02-28 05:50:00,43.0,41.9,30.40,SE,137,0.0,1.0,96,0.00,,,0.00,Wunderground v.1.15,2013-02-28 13:50:00,
2013-02-28 06:00:00,43.5,42.4,30.40,SE,137,0.0,1.0,96,0.00,,,0.00,Wunderground v.1.15,2013-02-28 14:00:00,
2013-02-28 06:05:00,43.4,42.3,30.41,SE,137,0.0,1.0,96,0.00,,,0.00,Wunderground v.1.15,2013-02-28 14:05:00,
2013-02-28 06:10:00,43.1,42.0,30.41,SE,137,0.0,1.0,96,0.00,,,0.00,Wunderground v.1.15,2013-02-28 14:10:00,
2013-02-28 06:15:00,42.7,41.6,30.41,SE,137,0.0,1.0,96,0.00,,,0.00,Wunderground v.1.15,2013-02-28 14:15:00,
2013-02-28 06:25:00,42.7,41.6,30.41,SE,137,0.0,1.0,96,0.00,,,0.00,Wunderground v.1.15,2013-02-28 14:25:00,
2013-02-28 06:30:00,43.3,42.2,30.41,SE,137,0.0,1.0,96,0.00,,,0.00,Wunderground v.1.15,2013-02-28 14:30:00,
2013-02-28 06:35:00,43.7,42.9,30.41,SE,137,0.0,1.0,97,0.00,,,0.00,Wunderground v.1.15,2013-02-28 14:35:00,
2013-02-28 06:40:00,43.8,43.0,30.41,SE,137,0.0,1.0,97,0.00,,,0.00,Wunderground v.1.15,2013-02-28 14:40:00,
2013-02-28 06:45:00,43.6,42.5,30.41,SE,137,0.0,1.0,96,0.00,,,0.00,Wunderground v.1.15,2013-02-28 14:45:00,
2013-02-28 06:55:00,43.7,42.9,30.41,SE,135,0.0,1.0,97,0.00,,,0.00,Wunderground v.1.15,2013-02-28 14:55:00,
2013-02-28 07:00:00,43.5,42.7,30.41,SE,135,0.0,1.0,97,0.00,,,0.00,Wunderground v.1.15,2013-02-28 15:00:00,
2013-02-28 07:05:00,43.2,42.1,30.41,SE,135,0.0,1.0,96,0.00,,,0.00,Wunderground v.1.15,2013-02-28 15:05:00,
2013-02-28 07:15:00,43.4,42.6,30.41,SE,135,0.0,1.0,97,0.00,,,0.00,Wunderground v.1.15,2013-02-28 15:15:00,
2013-02-28 07:20:00,43.5,42.7,30.41,SE,135,0.0,1.0,97,0.00,,,0.00,Wunderground v.1.15,2013-02-28 15:20:00,
2013-02-28 07:25:00,42.8,42.0,30.41,South,178,0.0,1.0,97,0.00,,,0.00,Wunderground v.1.15,2013-02-28 15:25:00,
2013-02-28 07:30:00,42.7,41.6,30.42,South,178,0.0,1.0,96,0.00,,,0.00,Wunderground v.1.15,2013-02-28 15:30:00,
2013-02-28 07:35:00,43.0,42.2,30.41,South,178,0.0,1.0,97,0.00,,,0.00,Wunderground v.1.15,2013-02-28 15:35:00,
2013-02-28 07:45:00,44.0,43.2,30.42,SSW,200,0.0,1.0,97,0.00,,,0.00,Wunderground v.1.15,2013-02-28 15:45:00,
2013-02-28 07:50:00,44.7,43.9,30.42,SSW,200,0.0,1.0,97,0.00,,,0.00,Wunderground v.1.15,2013-02-28 15:50:00,
2013-02-28 07:55:00,45.1,44.3,30.42,SSW,200,0.0,1.0,97,0.00,,,0.00,Wunderground v.1.15,2013-02-28 15:55:00,
2013-02-28 08:00:00,46.0,45.2,30.42,SSE,165,0.0,1.0,97,0.00,,,0.00,Wunderground v.1.15,2013-02-28 16:00:00,
2013-02-28 08:10:00,46.9,46.1,30.43,SSW,202,0.0,1.0,97,0.00,,,0.00,Wunderground v.1.15,2013-02-28 16:10:00,
2013-02-28 08:15:00,47.4,46.6,30.44,SW,217,0.0,1.0,97,0.00,,,0.00,Wunderground v.1.15,2013-02-28 16:15:00,
2013-02-28 08:20:00,48.2,47.4,30.44,SW,217,0.0,1.0,97,0.00,,,0.00,Wunderground v.1.15,2013-02-28 16:20:00,
2013-02-28 08:25:00,49.2,48.7,30.44,SW,234,0.0,1.0,98,0.00,,,0.01,Wunderground v.1.15,2013-02-28 16:25:00,
2013-02-28 08:35:00,51.1,50.3,30.44,SSW,194,0.0,1.0,97,0.00,,,0.01,Wunderground v.1.15,2013-02-28 16:35:00,
2013-02-28 08:40:00,51.6,50.8,30.44,NW,313,0.0,1.0,97,0.00,,,0.01,Wunderground v.1.15,2013-02-28 16:40:00,
2013-02-28 08:45:00,52.1,51.0,30.44,WNW,288,0.0,1.0,96,0.00,,,0.01,Wunderground v.1.15,2013-02-28 16:45:00,
2013-02-28 08:55:00,52.8,50.8,30.44,SW,224,1.0,1.0,93,0.00,,,0.01,Wunderground v.1.15,2013-02-28 16:55:00,
2013-02-28 09:00:00,52.7,50.4,30.44,SW,220,1.0,1.0,92,0.00,,,0.01,Wunderground v.1.15,2013-02-28 17:00:00,
2013-02-28 09:05:00,53.1,50.8,30.44,SW,220,1.0,1.0,92,0.00,,,0.01,Wunderground v.1.15,2013-02-28 17:05:00,
2013-02-28 09:10:00,53.4,50.8,30.45,WSW,241,1.0,1.0,91,0.00,,,0.01,Wunderground v.1.15,2013-02-28 17:10:00,
2013-02-28 09:15:00,53.8,51.2,30.45,WSW,242,1.0,1.0,91,0.00,,,0.01,Wunderground v.1.15,2013-02-28 17:15:00,
2013-02-28 09:25:00,54.7,52.1,30.45,WSW,242,0.0,1.0,91,0.00,,,0.01,Wunderground v.1.15,2013-02-28 17:25:00,
2013-02-28 09:30:00,55.4,52.5,30.44,WSW,240,0.0,1.0,90,0.00,,,0.01,Wunderground v.1.15,2013-02-28 17:30:00,
2013-02-28 09:35:00,56.0,53.1,30.44,WSW,240,0.0,1.0,90,0.00,,,0.01,Wunderground v.1.15,2013-02-28 17:35:00,
2013-02-28 09:45:00,57.0,53.5,30.44,WSW,240,0.0,1.0,88,0.00,,,0.01,Wunderground v.1.15,2013-02-28 17:45:00,
2013-02-28 09:50:00,57.6,53.1,30.44,WSW,240,0.0,1.0,85,0.00,,,0.01,Wunderground v.1.15,2013-02-28 17:50:00,
2013-02-28 09:55:00,58.2,53.4,30.44,WSW,238,0.0,1.0,84,0.00,,,0.01,Wunderground v.1.15,2013-02-28 17:55:00,
2013-02-28 10:00:00,59.4,53.9,30.44,WSW,238,0.0,1.0,82,0.00,,,0.01,Wunderground v.1.15,2013-02-28 18:00:00,
2013-02-28 10:05:00,60.3,53.8,30.44,WSW,238,0.0,1.0,79,0.00,,,0.01,Wunderground v.1.15,2013-02-28 18:05:00,
2013-02-28 10:15:00,61.4,54.5,30.44,WNW,286,1.0,3.0,78,0.00,,,0.01,Wunderground v.1.15,2013-02-28 18:15:00,
2013-02-28 10:20:00,61.6,54.3,30.45,WNW,284,1.0,1.0,77,0.00,,,0.01,Wunderground v.1.15,2013-02-28 18:20:00,
2013-02-28 10:25:00,61.8,54.2,30.44,West,279,0.0,3.0,76,0.00,,,0.01,Wunderground v.1.15,2013-02-28 18:25:00,
2013-02-28 10:35:00,60.7,53.8,30.44,SSW,205,1.0,7.0,78,0.00,,,0.01,Wunderground v.1.15,2013-02-28 18:35:00,
2013-02-28 10:40:00,59.3,53.8,30.44,South,187,4.0,8.0,82,0.00,,,0.01,Wunderground v.1.15,2013-02-28 18:40:00,
2013-02-28 10:45:00,58.9,54.1,30.44,SSW,207,8.0,8.0,84,0.00,,,0.01,Wunderground v.1.15,2013-02-28 18:45:00,
2013-02-28 10:50:00,58.8,54.0,30.44,SSW,213,7.0,7.0,84,0.00,,,0.01,Wunderground v.1.15,2013-02-28 18:50:00,
2013-02-28 11:00:00,58.7,54.2,30.44,South,190,7.0,7.0,85,0.00,,,0.01,Wunderground v.1.15,2013-02-28 19:00:00,
2013-02-28 11:05:00,59.2,54.4,30.44,South,185,6.0,7.0,84,0.00,,,0.01,Wunderground v.1.15,2013-02-28 19:05:00,
2013-02-28 11:10:00,59.1,54.3,30.44,South,172,6.0,8.0,84,0.00,,,0.01,Wunderground v.1.15,2013-02-28 19:10:00,
2013-02-28 11:15:00,58.9,53.7,30.44,SSW,199,8.0,8.0,83,0.00,,,0.01,Wunderground v.1.15,2013-02-28 19:15:00,
2013-02-28 11:25:00,58.7,54.2,30.44,SW,215,9.0,11.0,85,0.00,,,0.01,Wunderground v.1.15,2013-02-28 19:25:00,
2013-02-28 11:30:00,58.9,54.7,30.43,South,181,9.0,9.0,86,0.00,,,0.01,Wunderground v.1.15,2013-02-28 19:30:00,
2013-02-28 11:35:00,58.5,54.0,30.43,SSW,204,9.0,9.0,85,0.00,,,0.01,Wunderground v.1.15,2013-02-28 19:35:00,
2013-02-28 11:40:00,58.9,54.7,30.43,SSW,210,9.0,9.0,86,0.00,,,0.01,Wunderground v.1.15,2013-02-28 19:40:00,
2013-02-28 11:45:00,58.6,54.4,30.44,South,186,7.0,9.0,86,0.00,,,0.01,Wunderground v.1.15,2013-02-28 19:45:00,
2013-02-28 11:55:00,59.7,54.9,30.43,South,180,4.0,7.0,84,0.00,,,0.01,Wunderground v.1.15,2013-02-28 19:55:00,
2013-02-28 12:00:00,60.4,55.2,30.43,South,185,4.0,5.0,83,0.00,,,0.01,Wunderground v.1.15,2013-02-28 20:00:00,
2013-02-28 12:05:00,60.9,55.7,30.42,SSW,195,3.0,5.0,83,0.00,,,0.01,Wunderground v.1.15,2013-02-28 20:05:00,
2013-02-28 12:10:00,61.1,54.9,30.42,SSW,195,3.0,7.0,80,0.00,,,0.01,Wunderground v.1.15,2013-02-28 20:10:00,
2013-02-28 12:15:00,61.6,55.4,30.42,SSW,199,4.0,7.0,80,0.00,,,0.01,Wunderground v.1.15,2013-02-28 20:15:00,
2013-02-28 12:25:00,61.0,54.4,30.42,SSE,167,5.0,5.0,79,0.00,,,0.01,Wunderground v.1.15,2013-02-28 20:25:00,
2013-02-28 12:30:00,60.2,54.7,30.42,SSE,161,6.0,6.0,82,0.00,,,0.01,Wunderground v.1.15,2013-02-28 20:30:00,
2013-02-28 12:35:00,60.0,54.8,30.42,South,190,5.0,10.0,83,0.00,,,0.01,Wunderground v.1.15,2013-02-28 20:35:00,
2013-02-28 12:40:00,58.5,53.4,30.42,South,175,7.0,7.0,83,0.00,,,0.01,Wunderground v.1.15,2013-02-28 20:40:00,
2013-02-28 12:45:00,58.7,54.2,30.42,SSW,211,7.0,8.0,85,0.00,,,0.01,Wunderground v.1.15,2013-02-28 20:45:00,
2013-02-28 12:55:00,58.6,54.1,30.42,South,184,5.0,5.0,85,0.00,,,0.01,Wunderground v.1.15,2013-02-28 20:55:00,
2013-02-28 13:00:00,59.0,53.8,30.42,SSW,203,5.0,5.0,83,0.00,,,0.01,Wunderground v.1.15,2013-02-28 21:00:00,
2013-02-28 13:05:00,59.4,54.6,30.42,South,186,5.0,5.0,84,0.00,,,0.01,Wunderground v.1.15,2013-02-28 21:05:00,
2013-02-28 13:15:00,59.2,54.0,30.41,South,172,7.0,12.0,83,0.00,,,0.01,Wunderground v.1.15,2013-02-28 21:15:00,
2013-02-28 13:20:00,58.8,54.0,30.41,SSW,192,8.0,8.0,84,0.00,,,0.01,Wunderground v.1.15,2013-02-28 21:20:00,
2013-02-28 13:25:00,57.5,53.0,30.41,SSE,168,9.0,12.0,85,0.00,,,0.01,Wunderground v.1.15,2013-02-28 21:25:00,
2013-02-28 13:30:00,57.4,53.2,30.41,SSW,209,9.0,9.0,86,0.00,,,0.01,Wunderground v.1.15,2013-02-28 21:30:00,
2013-02-28 13:35:00,57.4,53.2,30.41,South,188,7.0,9.0,86,0.00,,,0.01,Wunderground v.1.15,2013-02-28 21:35:00,
2013-02-28 13:45:00,58.0,53.8,30.40,South,178,5.0,7.0,86,0.00,,,0.01,Wunderground v.1.15,2013-02-28 21:45:00,
2013-02-28 13:50:00,58.7,54.5,30.40,South,178,5.0,9.0,86,0.00,,,0.01,Wunderground v.1.15,2013-02-28 21:50:00,
2013-02-28 13:55:00,59.2,54.4,30.40,South,182,6.0,10.0,84,0.00,,,0.01,Wunderground v.1.15,2013-02-28 21:55:00,
2013-02-28 14:00:00,59.5,54.7,30.40,South,169,6.0,8.0,84,0.00,,,0.01,Wunderground v.1.15,2013-02-28 22:00:00,
2013-02-28 14:05:00,59.8,54.6,30.40,SSE,150,5.0,8.0,83,0.00,,,0.01,Wunderground v.1.15,2013-02-28 22:05:00,
2013-02-28 14:15:00,59.2,54.0,30.40,SSW,200,6.0,11.0,83,0.00,,,0.01,Wunderground v.1.15,2013-02-28 22:15:00,
2013-02-28 14:20:00,59.2,54.4,30.40,SSW,209,7.0,7.0,84,0.00,,,0.01,Wunderground v.1.15,2013-02-28 22:20:00,
2013-02-28 14:25:00,58.9,54.4,30.40,SSW,203,8.0,8.0,85,0.00,,,0.01,Wunderground v.1.15,2013-02-28 22:25:00,
2013-02-28 14:35:00,58.9,54.4,30.40,South,182,8.0,10.0,85,0.00,,,0.01,Wunderground v.1.15,2013-02-28 22:35:00,
2013-02-28 14:40:00,59.3,54.5,30.40,SSW,196,9.0,14.0,84,0.00,,,0.01,Wunderground v.1.15,2013-02-28 22:40:00,
2013-02-28 14:45:00,59.8,54.6,30.40,SSW,197,9.0,14.0,83,0.00,,,0.01,Wunderground v.1.15,2013-02-28 22:45:00,
2013-02-28 14:50:00,60.3,54.8,30.40,SW,225,8.0,8.0,82,0.00,,,0.01,Wunderground v.1.15,2013-02-28 22:50:00,
2013-02-28 15:00:00,60.3,54.8,30.40,SSW,192,9.0,9.0,82,0.00,,,0.01,Wunderground v.1.15,2013-02-28 23:00:00,
2013-02-28 15:05:00,60.4,54.9,30.40,South,190,9.0,9.0,82,0.00,,,0.01,Wunderground v.1.15,2013-02-28 23:05:00,
2013-02-28 15:10:00,60.7,55.2,30.40,South,187,9.0,9.0,82,0.00,,,0.01,Wunderground v.1.15,2013-02-28 23:10:00,
2013-02-28 15:15:00,61.0,55.1,30.40,South,190,7.0,11.0,81,0.00,,,0.01,Wunderground v.1.15,2013-02-28 23:15:00,
2013-02-28 15:20:00,61.1,54.9,30.39,South,178,7.0,7.0,80,0.00,,,0.01,Wunderground v.1.15,2013-02-28 23:20:00,
2013-02-28 15:30:00,61.2,55.3,30.39,SSW,198,6.0,6.0,81,0.00,,,0.01,Wunderground v.1.15,2013-02-28 23:30:00,
2013-02-28 15:35:00,60.0,54.2,30.39,SSW,200,8.0,15.0,81,0.00,,,0.01,Wunderground v.1.15,2013-02-28 23:35:00,
2013-02-28 15:40:00,59.8,54.3,30.38,South,186,10.0,10.0,82,0.00,,,0.01,Wunderground v.1.15,2013-02-28 23:40:00,
2013-02-28 15:45:00,59.6,54.1,30.38,South,190,10.0,13.0,82,0.00,,,0.01,Wunderground v.1.15,2013-02-28 23:45:00,
2013-02-28 15:55:00,59.1,53.6,30.38,SSW,211,10.0,10.0,82,0.00,,,0.01,Wunderground v.1.15,2013-02-28 23:55:00,
2013-02-28 16:00:00,59.5,54.3,30.39,SSW,208,9.0,9.0,83,0.00,,,0.01,Wunderground v.1.15,2013-03-01 00:00:00,
2013-02-28 16:05:00,58.9,53.4,30.38,SSW,211,8.0,9.0,82,0.00,,,0.01,Wunderground v.1.15,2013-03-01 00:05:00,
2013-02-28 16:15:00,58.7,53.5,30.38,South,186,8.0,9.0,83,0.00,,,0.01,Wunderground v.1.15,2013-03-01 00:15:00,
2013-02-28 16:20:00,58.3,53.2,30.38,SSW,194,8.0,8.0,83,0.00,,,0.01,Wunderground v.1.15,2013-03-01 00:20:00,
2013-02-28 16:25:00,58.0,53.2,30.38,SSW,193,8.0,8.0,84,0.00,,,0.01,Wunderground v.1.15,2013-03-01 00:25:00,
2013-02-28 16:30:00,57.9,53.1,30.38,SSW,202,7.0,9.0,84,0.00,,,0.01,Wunderground v.1.15,2013-03-01 00:30:00,
2013-02-28 16:35:00,57.9,53.4,30.38,South,184,7.0,9.0,85,0.00,,,0.01,Wunderground v.1.15,2013-03-01 00:35:00,
2013-02-28 16:45:00,58.0,53.2,30.38,SSW,197,6.0,9.0,84,0.00,,,0.01,Wunderground v.1.15,2013-03-01 00:45:00,
2013-02-28 16:50:00,57.8,53.0,30.38,South,190,5.0,9.0,84,0.00,,,0.01,Wunderground v.1.15,2013-03-01 00:50:00,
2013-02-28 16:55:00,57.7,52.9,30.38,SSE,166,6.0,9.0,84,0.00,,,0.01,Wunderground v.1.15,2013-03-01 00:55:00,
2013-02-28 17:00:00,57.9,52.8,30.38,South,173,3.0,4.0,83,0.00,,,0.01,Wunderground v.1.15,2013-03-01 01:00:00,
2013-02-28 17:05:00,57.9,52.8,30.38,South,187,3.0,4.0,83,0.00,,,0.01,Wunderground v.1.15,2013-03-01 01:05:00,
2013-02-28 17:15:00,57.5,52.4,30.38,SSW,196,5.0,8.0,83,0.00,,,0.01,Wunderground v.1.15,2013-03-01 01:15:00,
2013-02-28 17:20:00,56.6,51.8,30.38,SSW,204,7.0,10.0,84,0.00,,,0.01,Wunderground v.1.15,2013-03-01 01:20:00,
2013-02-28 17:25:00,55.8,51.7,30.38,SSW,205,8.0,10.0,86,0.00,,,0.01,Wunderground v.1.15,2013-03-01 01:25:00,
2013-02-28 17:30:00,55.4,51.6,30.38,SSW,196,8.0,8.0,87,0.00,,,0.01,Wunderground v.1.15,2013-03-01 01:30:00,
2013-02-28 17:40:00,55.1,51.6,30.38,SSW,196,2.0,2.0,88,0.00,,,0.01,Wunderground v.1.15,2013-03-01 01:40:00,
2013-02-28 17:45:00,55.1,51.6,30.38,SE,144,0.0,2.0,88,0.00,,,0.01,Wunderground v.1.15,2013-03-01 01:45:00,
2013-02-28 17:50:00,55.0,51.2,30.39,SE,144,0.0,2.0,87,0.00,,,0.01,Wunderground v.1.15,2013-03-01 01:50:00,
2013-02-28 17:55:00,54.2,50.4,30.39,East,101,0.0,2.0,87,0.00,,,0.01,Wunderground v.1.15,2013-03-01 01:55:00,
2013-02-28 18:05:00,53.4,50.2,30.39,SE,140,1.0,2.0,89,0.00,,,0.01,Wunderground v.1.15,2013-03-01 02:05:00,
2013-02-28 18:10:00,52.9,49.7,30.39,South,173,2.0,2.0,89,0.00,,,0.01,Wunderground v.1.15,2013-03-01 02:10:00,
2013-02-28 18:15:00,52.5,49.7,30.39,South,173,1.0,2.0,90,0.00,,,0.01,Wunderground v.1.15,2013-03-01 02:15:00,
2013-02-28 18:20:00,52.4,49.6,30.39,South,173,0.0,1.0,90,0.00,,,0.01,Wunderground v.1.15,2013-03-01 02:20:00,
2013-02-28 18:25:00,52.2,49.4,30.39,South,173,0.0,1.0,90,0.00,,,0.01,Wunderground v.1.15,2013-03-01 02:25:00,
2013-02-28 18:35:00,51.8,49.3,30.40,South,173,0.0,1.0,91,0.00,,,0.01,Wunderground v.1.15,2013-03-01 02:35:00,
2013-02-28 18:40:00,51.7,49.2,30.40,South,173,0.0,1.0,91,0.00,,,0.01,Wunderground v.1.15,2013-03-01 02:40:00,
2013-02-28 18:45:00,51.7,49.5,30.39,South,173,0.0,1.0,92,0.00,,,0.01,Wunderground v.1.15,2013-03-01 02:45:00,
2013-02-28 18:50:00,51.6,49.4,30.39,South,173,0.0,1.0,92,0.00,,,0.01,Wunderground v.1.15,2013-03-01 02:50:00,
2013-02-28 18:55:00,51.5,49.3,30.40,South,173,0.0,1.0,92,0.00,,,0.01,Wunderground v.1.15,2013-03-01 02:55:00,
2013-02-28 19:05:00,50.9,48.4,30.40,South,173,0.0,1.0,91,0.00,,,0.01,Wunderground v.1.15,2013-03-01 03:05:00,
2013-02-28 19:10:00,50.1,47.6,30.40,South,173,0.0,1.0,91,0.00,,,0.01,Wunderground v.1.15,2013-03-01 03:10:00,
2013-02-28 19:15:00,50.0,47.8,30.41,South,173,0.0,1.0,92,0.00,,,0.01,Wunderground v.1.15,2013-03-01 03:15:00,
2013-02-28 19:20:00,49.9,47.7,30.41,South,173,0.0,1.0,92,0.00,,,0.01,Wunderground v.1.15,2013-03-01 03:20:00,
2013-02-28 19:25:00,49.7,47.5,30.41,South,173,0.0,1.0,92,0.00,,,0.01,Wunderground v.1.15,2013-03-01 03:25:00,
2013-02-28 19:35:00,49.5,47.6,30.41,South,173,0.0,1.0,93,0.00,,,0.01,Wunderground v.1.15,2013-03-01 03:35:00,
2013-02-28 19:40:00,49.5,47.6,30.41,South,173,0.0,1.0,93,0.00,,,0.01,Wunderground v.1.15,2013-03-01 03:40:00,
2013-02-28 19:50:00,49.8,48.1,30.41,South,173,0.0,1.0,94,0.00,,,0.01,Wunderground v.1.15,2013-03-01 03:50:00,
2013-02-28 19:55:00,49.8,48.1,30.41,South,173,0.0,1.0,94,0.00,,,0.01,Wunderground v.1.15,2013-03-01 03:55:00,
2013-02-28 20:00:00,49.2,47.5,30.42,South,173,0.0,1.0,94,0.00,,,0.01,Wunderground v.1.15,2013-03-01 04:00:00,
2013-02-28 20:05:00,48.8,47.2,30.42,South,173,0.0,1.0,94,0.00,,,0.01,Wunderground v.1.15,2013-03-01 04:05:00,
2013-02-28 20:10:00,48.5,46.9,30.42,South,173,0.0,1.0,94,0.00,,,0.01,Wunderground v.1.15,2013-03-01 04:10:00,
2013-02-28 20:15:00,48.2,46.6,30.42,South,173,0.0,1.0,94,0.00,,,0.01,Wunderground v.1.15,2013-03-01 04:15:00,
2013-02-28 20:20:00,48.0,46.4,30.42,South,173,0.0,1.0,94,0.00,,,0.01,Wunderground v.1.15,2013-03-01 04:20:00,
2013-02-28 20:30:00,47.7,46.1,30.42,South,173,0.0,1.0,94,0.00,,,0.01,Wunderground v.1.15,2013-03-01 04:30:00,
2013-02-28 20:35:00,48.1,46.7,30.43,South,173,0.0,1.0,95,0.00,,,0.01,Wunderground v.1.15,2013-03-01 04:35:00,
2013-02-28 20:40:00,48.3,46.9,30.42,South,173,0.0,1.0,95,0.00,,,0.01,Wunderground v.1.15,2013-03-01 04:40:00,
2013-02-28 20:45:00,48.3,46.9,30.42,South,173,0.0,1.0,95,0.00,,,0.01,Wunderground v.1.15,2013-03-01 04:45:00,
2013-02-28 20:50:00,48.2,46.8,30.43,South,173,0.0,1.0,95,0.00,,,0.01,Wunderground v.1.15,2013-03-01 04:50:00,
2013-02-28 21:00:00,48.5,47.4,30.43,South,173,0.0,1.0,96,0.00,,,0.01,Wunderground v.1.15,2013-03-01 05:00:00,
2013-02-28 21:05:00,48.2,46.8,30.43,South,173,0.0,1.0,95,0.00,,,0.01,Wunderground v.1.15,2013-03-01 05:05:00,
2013-02-28 21:10:00,47.8,46.4,30.43,South,173,0.0,1.0,95,0.00,,,0.01,Wunderground v.1.15,2013-03-01 05:10:00,
2013-02-28 21:15:00,47.5,46.1,30.43,South,173,0.0,1.0,95,0.00,,,0.01,Wunderground v.1.15,2013-03-01 05:15:00,
2013-02-28 21:20:00,47.8,46.7,30.44,South,173,0.0,1.0,96,0.00,,,0.01,Wunderground v.1.15,2013-03-01 05:20:00,
2013-02-28 21:30:00,47.3,46.2,30.44,South,173,0.0,1.0,96,0.00,,,0.01,Wunderground v.1.15,2013-03-01 05:30:00,
2013-02-28 21:35:00,47.2,46.1,30.44,South,173,0.0,1.0,96,0.00,,,0.01,Wunderground v.1.15,2013-03-01 05:35:00,
2013-02-28 21:40:00,47.4,46.3,30.44,South,173,0.0,1.0,96,0.00,,,0.01,Wunderground v.1.15,2013-03-01 05:40:00,
2013-02-28 21:45:00,47.7,46.6,30.44,South,173,0.0,1.0,96,0.00,,,0.01,Wunderground v.1.15,2013-03-01 05:45:00,
2013-02-28 21:50:00,47.7,46.6,30.44,South,173,0.0,1.0,96,0.00,,,0.01,Wunderground v.1.15,2013-03-01 05:50:00,
2013-02-28 21:55:00,47.7,46.6,30.44,South,173,0.0,1.0,96,0.00,,,0.01,Wunderground v.1.15,2013-03-01 05:55:00,
2013-02-28 22:00:00,47.7,46.6,30.43,South,173,0.0,1.0,96,0.00,,,0.01,Wunderground v.1.15,2013-03-01 06:00:00,
2013-02-28 22:05:00,47.6,46.5,30.44,South,173,0.0,1.0,96,0.00,,,0.01,Wunderground v.1.15,2013-03-01 06:05:00,
2013-02-28 22:15:00,47.6,46.8,30.44,South,173,0.0,1.0,97,0.00,,,0.01,Wunderground v.1.15,2013-03-01 06:15:00,
2013-02-28 22:20:00,47.6,46.8,30.44,South,173,0.0,1.0,97,0.00,,,0.01,Wunderground v.1.15,2013-03-01 06:20:00,
2013-02-28 22:25:00,47.5,46.4,30.44,South,173,0.0,1.0,96,0.00,,,0.01,Wunderground v.1.15,2013-03-01 06:25:00,
2013-02-28 22:30:00,47.4,46.6,30.44,South,173,0.0,1.0,97,0.00,,,0.01,Wunderground v.1.15,2013-03-01 06:30:00,
2013-02-28 22:35:00,47.3,46.5,30.44,South,173,0.0,1.0,97,0.00,,,0.01,Wunderground v.1.15,2013-03-01 06:35:00,
2013-02-28 22:45:00,47.1,46.3,30.44,South,173,0.0,1.0,97,0.00,,,0.01,Wunderground v.1.15,2013-03-01 06:45:00,
2013-02-28 22:50:00,47.0,46.2,30.44,South,173,0.0,1.0,97,0.00,,,0.01,Wunderground v.1.15,2013-03-01 06:50:00,
2013-02-28 22:55:00,47.0,46.2,30.44,South,173,0.0,1.0,97,0.00,,,0.01,Wunderground v.1.15,2013-03-01 06:55:00,
2013-02-28 23:00:00,46.9,46.1,30.44,South,173,0.0,1.0,97,0.00,,,0.01,Wunderground v.1.15,2013-03-01 07:00:00,
2013-02-28 23:05:00,46.8,46.0,30.43,South,173,0.0,1.0,97,0.00,,,0.01,Wunderground v.1.15,2013-03-01 07:05:00,
2013-02-28 23:10:00,46.7,45.9,30.44,South,173,0.0,1.0,97,0.00,,,0.01,Wunderground v.1.15,2013-03-01 07:10:00,
2013-02-28 23:15:00,46.4,45.6,30.43,South,173,0.0,1.0,97,0.00,,,0.01,Wunderground v.1.15,2013-03-01 07:15:00,
2013-02-28 23:20:00,46.3,45.5,30.43,South,173,0.0,1.0,97,0.00,,,0.01,Wunderground v.1.15,2013-03-01 07:20:00,
2013-02-28 23:25:00,46.0,45.2,30.43,South,173,0.0,1.0,97,0.00,,,0.01,Wunderground v.1.15,2013-03-01 07:25:00,
2013-02-28 23:30:00,45.8,45.0,30.43,South,173,0.0,1.0,97,0.00,,,0.01,Wunderground v.1.15,2013-03-01 07:30:00,
2013-02-28 23:40:00,45.6,44.8,30.43,South,173,0.0,1.0,97,0.00,,,0.01,Wunderground v.1.15,2013-03-01 07:40:00,
2013-02-28 23:45:00,45.5,44.7,30.43,South,173,0.0,1.0,97,0.00,,,0.01,Wunderground v.1.15,2013-03-01 07:45:00,
2013-02-28 23:50:00,45.4,44.6,30.43,South,173,0.0,1.0,97,0.00,,,0.01,Wunderground v.1.15,2013-03-01 07:50:00,